ECHOSTAR 19 (41893 NORAD) Tracking and Keplerian Element Data

This shows tracking and keplerian element data for the satellite.

Feedback or suggestion? Click here.




ElementValue
Catalog41893
NameECHOSTAR 19
Epoch Orbit694
Epoch Day319.11927466
Epoch Year2018
RAAN286.8427
Inclination0.01
Eccentricity0.0001475
Argument of Perigee297.8224
Mean Anonmoly135.3231
Mean Motion1.00270534
Decay Rate-1.36E-06
L11 41893U 16079A 18319.11927466 -.00000136 00000-0 00000-0 0 9997
L22 41893 0.0100 286.8427 0001475 297.8224 135.3231 1.00270534 6945

Live tracking and technical data element details for ECHOSTAR 19 (NORAD 41893). ECHOSTAR 19 can be tracked NOW for your location showing map with azimuth and elevation plus other details from your city location.

Track the satellite on the map from your city or location and see movement details for azimuth, elevation, latitude, longitude, range, height, and movement on the map or in text.







IsCatalogInMostPopularTable: catalog: 41893, numindb: 152
Update: records affected: 1



GetName: 41893 ECHOSTAR 19

Hit Count: updated at: Fri, 16 Nov 2018 09:26:25 GMT